Flag for Colombia Weather past 2 weeks in Bogota, Colombia

Now
54 °F

Passing clouds.


Feels Like: 52 °F
Forecast: 49 / 65 °F
Wind: 6 mph from Northeast

Location: Bogota / Eldorado

Current Time: Jul 7, 2015 at 12:02:03 AM

Latest Report: Jul 6, 2015 at 11:00 PM


Visibility: N/A

Pressure: 30.40 "Hg (22.21 "Hg at 2618m altitude)

Humidity: 82%

Dew point: 48 °F

Location of BogotaLocation

Historic Weather in Bogota — Graph

°F

Bogota temperature yesterday

Maximum temperature yesterday: 64 °F (at 12:00 PM)
Minimum temperature yesterday: 48 °F (at 6:00 AM)
Average temperature yesterday: 58 °F

Past Weeks' High & Low Weather Summary

 TemperatureHumidityPressure
High81 °F (Jun 22, 2:00 PM)100% (Jun 22, 6:00 AM)30.43 "Hg (Jun 22, 6:00 AM)
Low45 °F (Jun 30, 4:00 AM)35% (Jul 5, 4:00 PM)29.97 "Hg (Jun 22, 2:00 PM)
Average58 °F70%30.35 "Hg
* Reported Jun 21 11:00 PM — Jul 6 11:00 PM, Bogota, Weather by CustomWeather, © 2015

Note: Actual official high and low records may vary slightly from our data, if they occured in-between our weather recording intervals... More about our weather records

Advertising

Bogota weather history for previous 24 hours

 ConditionsComfort  
Time TempWeatherWind HumidityBarometerVisibility
11:00 PM
Mon, Jul 6
54 °FPassing clouds.6 mph82%30.40 "HgN/A
10:00 PM55 °FPassing clouds.9 mph72%30.39 "HgN/A
9:00 PM55 °FPassing clouds.6 mph72%30.37 "HgN/A
8:00 PM59 °FPassing clouds.8 mph63%30.35 "HgN/A
7:00 PM59 °FPassing clouds.5 mph63%30.34 "HgN/A
6:00 PM61 °FScattered clouds.9 mph59%30.31 "HgN/A
5:00 PM63 °FScattered clouds.7 mph56%30.30 "HgN/A
4:00 PM64 °FScattered clouds.9 mph56%30.29 "HgN/A
3:00 PM63 °FScattered clouds.10 mph59%30.31 "HgN/A
2:00 PM63 °FScattered showers. Partly sunny.5 mph64%30.31 "HgN/A
1:00 PM64 °FScattered showers. Partly sunny.12 mph56%30.33 "HgN/A
12:00 PM64 °FScattered showers. Partly sunny.5 mph56%30.35 "HgN/A
11:00 AM63 °FScattered showers. Partly sunny.8 mph52%30.37 "HgN/A
10:00 AM63 °FScattered showers. Partly sunny.9 mph59%30.38 "HgN/A
9:00 AM59 °FScattered showers. Partly sunny.3 mph63%30.38 "HgN/A
8:00 AM59 °FScattered showers. Partly sunny.7 mph72%30.37 "HgN/A
7:00 AM52 °FScattered showers. Partly sunny.6 mph88%30.37 "HgN/A
6:00 AM48 °FScattered clouds.7 mph87%30.33 "HgN/A
5:00 AM52 °FPassing clouds.2 mph88%30.32 "HgN/A
4:00 AM50 °FPassing clouds.3 mph88%30.32 "HgN/A
3:00 AM52 °FPassing clouds.2 mph88%30.33 "HgN/A
2:00 AM54 °FPassing clouds.2 mph82%30.35 "HgN/A
1:00 AM55 °FScattered showers. Partly cloudy.3 mph77%30.35 "HgN/A
12:00 AM54 °FPartly cloudy.5 mph82%30.36 "HgN/A
Weather by CustomWeather, © 2015

See weather overviewHow to use our weather pages